Brooklyn Borough

United States     40˚38′58″N   73˚57′24″W
temp.,
°C
wind,
m/s
gust,
m/s
humid.,
%
clouds,
%
prec.,
mm/h
press.,
hPa
HPBL,
m
2 december, wed
wed201:00+3˚wsw7115340 0.0 10101128
04:00+3˚wsw711566 0.0 10111018
07:00+3˚wsw7115920 0.0 10131026
10:00+4˚wsw7105574 0.0 10141289
13:00+6˚w7104887 0.0 10141677
16:00+6˚wnw6125398 0.0 10151553
19:00+6˚w5125154 0.0 10181529
22:00+5˚w612540 0.0 10201181
3 december, thu
thu301:00+4˚w48560 0.0 1021768
04:00+3˚wsw47610 0.0 1022399
07:00+3˚wsw47670 0.0 1023386
10:00+5˚wsw595533 0.0 1024521
13:00+9˚wsw593717 0.0 1022624
16:00+9˚wsw5113479 0.0 1021760
19:00+9˚sw5103890 0.0 1022699
22:00+8˚sw51045100 0.0 1021628
4 december, fri
fri401:00+8˚sw4848100 0.0 1020536
04:00+7˚sw4954100 0.0 1020499
07:00+7˚sw4857100 0.0 1020484
10:00+8˚sw4950100 0.0 1020635
13:00+9˚sw61057100 0.1 1019983
16:00+8˚sw51074100 0.4 1018773
19:00+8˚sw51083100 1.1 1019727
22:00+8˚sw41084100 2.1 1018591
5 december, sat
sat501:00+7˚wsw3689100 6.1 1018387
04:00+7˚n1288100 1.8 1017191
07:00+8˚ne3487100 2.1 1016206
10:00+8˚ne4888100 5.1 1014447
13:00+8˚ne81491100 16.0 1009475
16:00+8˚ne81490100 10.8 1004587
19:00+8˚ne101688100 22.0 1000478
22:00+9˚ene81689100 6.4 996764
6 december, sun
sun601:00+9˚ne598698 6.6 995548
04:00+9˚nnw7118199 0.6 996524
07:00+7˚nnw6127499 0.9 1000624
10:00+8˚nw696643 0.0 1004602
13:00+9˚nw6105722 0.0 1005848
16:00+6˚nw610570 0.0 1007742
19:00+3˚nw711590 0.0 1009630
22:00+2˚nw596012 0.0 1011531